sat.trackr.live / text

‹ back to catalog

STARLINK-1624

NORAD 46130 · 2020-057P

PAYLOAD ACTIVE UNKNOWN

§ Identity

Operator
Country
US
Launch date
2020-08-18
Launch site
AFETR
Launch vehicle
Mass (kg)
RCS (m²)

Purposes: comms

External: N2YO · Heavens-Above · Gunter

§ Orbital elements

Epoch: 2026-05-25T04:06:51.121728Z

Period
88.79 min
Inclination
53.0203°
Eccentricity
0.0011449
Mean motion
16.21833242 rev/d
Perigee alt
207.0 km
Apogee alt
222.1 km
Semi-major
6,592.7 km
B*
1.2481e-3
RAAN
205.9195°
Arg perigee
338.2007°
Mean anomaly
21.8543°
Rev number
32,062

§ Raw data

STARLINK-16241 46130U 20057P   26145.17142502  .02906259  11896-4  12481-2 0  99982 46130  53.0203 205.9195 0011449 338.2007  21.8543 16.21833242320620

JSON: /api/v1/satellites/46130 · /tle

For live sub-satellite position, see the globe view (requires WebGL).

§ Visibility from observer

Set your observer location to see the next 7 days of passes ≥ 10°. The values pass through the URL so the page stays shareable.

No JS? Fill the form by hand. The geolocation button needs JavaScript.